Preview of NWS' New Version of Forecast
This preview is not operational and should not be used for support decisions.

Regional Weather Roundup (RWR)

Issued by National Weather Service (NWS)

                            
000
ASUS45 KABQ 220601
RWRNM 
NEW MEXICO REGIONAL WEATHER ROUNDUP
NATIONAL WEATHER SERVICE ALBUQUERQUE NM
1200 AM MDT THU AUG 22 2019

NOTE: "FAIR" MEANS FEW OR NO CLOUDS BELOW 12,000 FEET AGL WITH NO
       SIGNIFICANT WEATHER OR OBSTRUCTIONS TO VISION.

      THIS PRODUCT IS RELEASED AS TWO VERSIONS.  ONE VERSION NEAR
      THE TOP OF THE HOUR CONTAINING PRELIMINARY DATA FROM ALBUQUERQUE
      AND OTHER STATIONS.  A FINAL VERSION WITH ADDITIONAL DATA IS 
      ISSUED ABOUT 10 MINUTES AFTER THE HOUR.
 
NMZ501-503-504-510>518-220700-
NORTHWEST PLATEAU/NORTHCENTRAL MOUNTAINS
  
CITY           SKY/WX    TMP DP  RH WIND       PRES   REMARKS
FARMINGTON     FAIR      73  39  29 E6        30.12R                  
6HR MIN TEMP:  68; 6HR MAX TEMP:  86;                                

LOS ALAMOS       N/A     64  45  49 SW8       30.28F                  
SANTA FE       FAIR      58  54  86 CALM      30.23F                  
6HR MIN TEMP:  58; 6HR MAX TEMP:  74; 6HR PCP:  0.10;                

TAOS             N/A     54  49  83 N3        30.31F                  
ANGEL FIRE     FAIR      41  39  93 CALM      30.42S                  

$$
NMZ402-403-502-505>509-220700-
WESTCENTRAL MOUNTAINS/SOUTHWEST MOUNTAINS
  
CITY           SKY/WX    TMP DP  RH WIND       PRES   REMARKS
GALLUP         FAIR      69  40  34 E13       30.19S                  
6HR MIN TEMP:  67; 6HR MAX TEMP:  89;                                

GRANTS         FAIR      66  48  52 S13       30.26F                  
SILVER CITY    FAIR      66  54  64 CALM      30.18R                  

$$
NMZ407-409-411-412-220700-
SOUTHERN DESERTS
  
CITY           SKY/WX    TMP DP  RH WIND       PRES   REMARKS
DEMING         FAIR      74  57  55 NE9       30.10R                  
6HR MIN TEMP:  74; 6HR MAX TEMP:  85; 6HR PCP: TRACE;                

LAS CRUCES     FAIR      72  57  60 NW3       30.12R                  
HOLLOMAN AFB   CLOUDY    79  54  41 S7        30.10S                  
ALAMOGORDO     CLOUDY    77  54  44 E12G18    30.09F                  
T OR C         FAIR      69  59  70 NW5       30.13R                  
6HR MIN TEMP:  69; 6HR MAX TEMP:  78;                                


$$
NMZ519>523-220700-
CENTRAL VALLEYS/CENTRAL HIGHLANDS
  
CITY           SKY/WX    TMP DP  RH WIND       PRES   REMARKS
ALBUQUERQUE    FAIR      72  48  42 E9        30.16F                  
6HR MIN TEMP:  68; 6HR MAX TEMP:  89; 6HR PCP: TRACE;                

DOUBLE EAGLE   FAIR      61  49  66 SW6       30.19F                  
CLINES CORNERS FAIR      57  50  77 W5          N/A                   
6HR MIN TEMP:  56; 6HR MAX TEMP:  63; 6HR PCP:  0.06;                

BELEN          FAIR      67  48  50 NW3       30.17R                  
6HR MIN TEMP:  67; 6HR MAX TEMP:  85;                                

SOCORRO        FAIR      68  49  51 SW7       30.15S                  
6HR MIN TEMP:  67; 6HR MAX TEMP:  83;                                


$$
NMZ524>526-539-540-220700-
SOUTHCENTRAL MOUNTAINS
  
CITY           SKY/WX    TMP DP  RH WIND       PRES   REMARKS
RUIDOSO        CLOUDY    63  52  67 SW9       30.30S                  

$$
NMZ527>531-220700-
NORTHEAST HIGHLANDS/NORTHEAST PLAINS
  
CITY           SKY/WX    TMP DP  RH WIND       PRES   REMARKS
LAS VEGAS      FAIR      57  46  66 S8        30.27S                  
6HR MIN TEMP:  57; 6HR MAX TEMP:  74;                                

RATON          FAIR      52  48  86 N8        30.25F                  
6HR MIN TEMP:  52; 6HR MAX TEMP:  68; 6HR PCP: TRACE;                

CLAYTON        FAIR      61  59  93 S9        30.18F                  
6HR MIN TEMP:  61; 6HR MAX TEMP:  84; 6HR PCP:  0.02;                


$$
NMZ532>537-220700-
EASTCENTRAL PLAINS
  
CITY           SKY/WX    TMP DP  RH WIND       PRES   REMARKS
SANTA ROSA     FAIR      67  62  81 E8        30.13F                  
TUCUMCARI      FAIR      67  63  87 W5        30.10F                  
6HR MIN TEMP:  66; 6HR MAX TEMP:  84; 6HR PCP:  0.23;                

CANNON AFB     NOT AVBL                                               
CLOVIS AIRPORT LGT RAIN  67  60  78 W8        30.15F                  

$$
NMZ028-029-538-220700-
SOUTHEAST PLAINS
  
CITY           SKY/WX    TMP DP  RH WIND       PRES   REMARKS
ROSWELL        MOCLDY    74  60  61 NE12      30.08S                  
6HR MIN TEMP:  74; 6HR MAX TEMP:  98;                                

ARTESIA        FAIR      75  59  57 N13G20    30.09R                  
CARLSBAD       FAIR      84  54  35 MISG      30.00R                  
6HR MIN TEMP:  84; 6HR MAX TEMP:  95;                                

HOBBS          FAIR      79  54  41 S10       30.05S                  


$$